When you browse on this site, cookies collect data to enhance your experience and personalize the content and advertising you see.
Visit our Privacy Policy to learn more. By continuing to use the site, you agree to this use of cookies and data.
  • în România
  • Lista ţărilor
  • Pe 7 zile
  • Temperatura apei
  • Hartă satelitară
  • Meteo pe hartă
  • Widget-uri
  • user-avatar
    Intrare

    Meteo pe oră la Annaba

    Astăzi, 22 Martie, Vineri

    Timp Temperatura Precipitaţii Vânt Presiune Umiditate
    00:00 +12°C° 0.6 mm 5 m/s 761 mmHg 94%
    01:00 +11°C° 0 mm 4 m/s 761 mmHg 94%
    02:00 +11°C° 0.8 mm 3 m/s 761 mmHg 94%
    03:00 +11°C° 0.8 mm 3 m/s 761 mmHg 94%
    04:00 +11°C° 0.8 mm 3 m/s 761 mmHg 94%
    05:00 +10°C° 0.1 mm 3 m/s 761 mmHg 93%
    06:00 +10°C° 0.1 mm 2 m/s 762 mmHg 93%
    07:00 +10°C° 0 mm 2 m/s 762 mmHg 93%
    08:00 +12°C° 0 mm 2 m/s 762 mmHg 88%
    09:00 +13°C° 0 mm 3 m/s 762 mmHg 82%
    10:00 +14°C° 0 mm 3 m/s 762 mmHg 76%
    11:00 +16°C° 0 mm 3 m/s 762 mmHg 72%
    12:00 +17°C° 0 mm 3 m/s 762 mmHg 67%
    13:00 +18°C° 0 mm 3 m/s 763 mmHg 62%
    14:00 +17°C° 0 mm 4 m/s 763 mmHg 65%
    15:00 +16°C° 0 mm 5 m/s 762 mmHg 68%
    16:00 +16°C° 0 mm 5 m/s 762 mmHg 71%
    17:00 +14°C° 0.1 mm 5 m/s 763 mmHg 77%
    18:00 +13°C° 0.1 mm 4 m/s 763 mmHg 83%
    19:00 +12°C° 0.1 mm 4 m/s 763 mmHg 89%
    20:00 +12°C° 1.1 mm 3 m/s 763 mmHg 91%
    21:00 +11°C° 1.1 mm 3 m/s 763 mmHg 93%
    22:00 +12°C° 1.1 mm 2 m/s 764 mmHg 95%
    23:00 +11°C° 3 mm 3 m/s 764 mmHg 95%

    Mâine, 23 Martie, Sâmbătă

    Timp Temperatura Precipitaţii Vânt Presiune Umiditate
    00:00 +11°C° 3 mm 4 m/s 764 mmHg 96%
    01:00 +12°C° 3 mm 5 m/s 763 mmHg 96%
    02:00 +12°C° 1.1 mm 5 m/s 763 mmHg 95%
    03:00 +12°C° 1.1 mm 5 m/s 763 mmHg 94%
    04:00 +12°C° 1.1 mm 5 m/s 763 mmHg 94%
    05:00 +12°C° 0.6 mm 5 m/s 763 mmHg 94%
    06:00 +12°C° 0.6 mm 5 m/s 764 mmHg 94%
    07:00 +12°C° 0.6 mm 5 m/s 764 mmHg 94%
    08:00 +12°C° 0.7 mm 5 m/s 764 mmHg 94%
    09:00 +12°C° 0.7 mm 5 m/s 764 mmHg 93%
    10:00 +13°C° 0.7 mm 4 m/s 765 mmHg 93%
    11:00 +13°C° 0.2 mm 4 m/s 765 mmHg 90%
    12:00 +14°C° 0.2 mm 3 m/s 765 mmHg 87%
    13:00 +16°C° 0.2 mm 3 m/s 765 mmHg 84%
    14:00 +16°C° 0.1 mm 3 m/s 765 mmHg 82%
    15:00 +17°C° 0.1 mm 3 m/s 765 mmHg 79%
    16:00 +17°C° 0.1 mm 3 m/s 764 mmHg 77%
    17:00 +16°C° 0 mm 3 m/s 765 mmHg 81%
    18:00 +15°C° 0 mm 2 m/s 765 mmHg 86%
    19:00 +13°C° 0 mm 1 m/s 765 mmHg 90%
    20:00 +13°C° 0 mm 1 m/s 766 mmHg 91%
    21:00 +13°C° 0 mm 1 m/s 766 mmHg 92%
    22:00 +11°C° 0 mm 0 m/s 766 mmHg 92%
    23:00 +12°C° 0 mm 1 m/s 766 mmHg 93%

    Poimâine, 24 Martie, Duminică

    Timp Temperatura Precipitaţii Vânt Presiune Umiditate
    00:00 +12°C° 0 mm 1 m/s 766 mmHg 93%
    01:00 +11°C° 0 mm 1 m/s 766 mmHg 93%
    02:00 +11°C° 0 mm 1 m/s 766 mmHg 93%
    03:00 +11°C° 0 mm 1 m/s 766 mmHg 93%
    04:00 +10°C° 0 mm 2 m/s 766 mmHg 92%
    05:00 +10°C° 0 mm 2 m/s 766 mmHg 92%
    06:00 +10°C° 0 mm 2 m/s 766 mmHg 91%
    07:00 +10°C° 0 mm 2 m/s 766 mmHg 90%
    08:00 +13°C° 0 mm 1 m/s 767 mmHg 83%
    09:00 +15°C° 0 mm 1 m/s 767 mmHg 75%
    10:00 +19°C° 0 mm 1 m/s 767 mmHg 68%
    11:00 +20°C° 0 mm 1 m/s 767 mmHg 63%
    12:00 +21°C° 0 mm 1 m/s 766 mmHg 58%
    13:00 +21°C° 0 mm 2 m/s 766 mmHg 53%
    14:00 +21°C° 0 mm 2 m/s 766 mmHg 56%
    15:00 +21°C° 0 mm 3 m/s 765 mmHg 58%
    16:00 +20°C° 0 mm 3 m/s 765 mmHg 61%
    17:00 +19°C° 0 mm 3 m/s 765 mmHg 68%
    18:00 +17°C° 0 mm 3 m/s 765 mmHg 76%
    19:00 +14°C° 0 mm 3 m/s 765 mmHg 83%
    20:00 +14°C° 0 mm 2 m/s 765 mmHg 84%
    21:00 +14°C° 0 mm 2 m/s 766 mmHg 85%
    22:00 +13°C° 0 mm 1 m/s 766 mmHg 86%
    23:00 +13°C° 0 mm 1 m/s 766 mmHg 86%

    25 Martie, Luni

    Timp Temperatura Precipitaţii Vânt Presiune Umiditate
    00:00 +13°C° 0 mm 1 m/s 766 mmHg 85%
    01:00 +12°C° 0 mm 1 m/s 765 mmHg 84%
    02:00 +12°C° 0 mm 1 m/s 765 mmHg 82%
    03:00 +12°C° 0 mm 1 m/s 765 mmHg 79%
    04:00 +12°C° 0 mm 1 m/s 765 mmHg 77%
    05:00 +12°C° 0 mm 1 m/s 765 mmHg 77%
    06:00 +12°C° 0 mm 1 m/s 764 mmHg 76%
    07:00 +12°C° 0 mm 1 m/s 764 mmHg 76%
    08:00 +15°C° 0 mm 1 m/s 764 mmHg 71%
    09:00 +18°C° 0 mm 1 m/s 765 mmHg 66%
    10:00 +20°C° 0 mm 1 m/s 765 mmHg 61%
    11:00 +21°C° 0 mm 1 m/s 764 mmHg 59%
    12:00 +22°C° 0 mm 1 m/s 764 mmHg 58%
    13:00 +23°C° 0 mm 2 m/s 764 mmHg 57%
    14:00 +21°C° 0 mm 2 m/s 763 mmHg 59%
    15:00 +21°C° 0 mm 2 m/s 763 mmHg 61%
    16:00 +21°C° 0 mm 3 m/s 762 mmHg 63%
    17:00 +19°C° 0 mm 2 m/s 762 mmHg 69%
    18:00 +18°C° 0 mm 1 m/s 762 mmHg 76%
    19:00 +15°C° 0 mm 1 m/s 762 mmHg 83%
    20:00 +14°C° 0 mm 1 m/s 763 mmHg 84%
    21:00 +14°C° 0 mm 1 m/s 763 mmHg 85%
    22:00 +13°C° 0 mm 1 m/s 764 mmHg 87%
    23:00 +13°C° 0 mm 1 m/s 764 mmHg 87%

    26 Martie, Marţi

    Timp Temperatura Precipitaţii Vânt Presiune Umiditate
    00:00 +13°C° 0 mm 1 m/s 764 mmHg 87%
    01:00 +13°C° 0 mm 1 m/s 763 mmHg 87%
    02:00 +12°C° 0 mm 1 m/s 763 mmHg 86%
    03:00 +12°C° 0 mm 1 m/s 763 mmHg 86%
    04:00 +12°C° 0 mm 2 m/s 763 mmHg 85%
    05:00 +12°C° 0 mm 2 m/s 763 mmHg 84%
    06:00 +12°C° 0 mm 2 m/s 763 mmHg 84%
    07:00 +12°C° 0 mm 2 m/s 763 mmHg 83%
    08:00 +14°C° 0 mm 2 m/s 763 mmHg 77%
    09:00 +16°C° 0 mm 2 m/s 763 mmHg 70%
    10:00 +18°C° 0 mm 2 m/s 764 mmHg 63%
    11:00 +19°C° 0 mm 2 m/s 764 mmHg 61%
    12:00 +19°C° 0 mm 3 m/s 763 mmHg 58%
    13:00 +20°C° 0 mm 3 m/s 763 mmHg 55%
    14:00 +20°C° 0 mm 4 m/s 763 mmHg 56%
    15:00 +19°C° 0 mm 4 m/s 763 mmHg 58%
    16:00 +19°C° 0 mm 4 m/s 763 mmHg 59%
    17:00 +17°C° 0 mm 4 m/s 764 mmHg 66%
    18:00 +14°C° 0 mm 3 m/s 764 mmHg 72%
    19:00 +12°C° 0 mm 3 m/s 765 mmHg 78%
    20:00 +12°C° 0 mm 3 m/s 766 mmHg 81%
    21:00 +11°C° 0 mm 3 m/s 766 mmHg 83%
    22:00 +11°C° 0 mm 3 m/s 767 mmHg 86%
    23:00 +10°C° 0 mm 3 m/s 767 mmHg 86%

    27 Martie, Miercuri

    Timp Temperatura Precipitaţii Vânt Presiune Umiditate
    00:00 +10°C° 0 mm 3 m/s 768 mmHg 87%
    01:00 +10°C° 0 mm 4 m/s 768 mmHg 88%
    02:00 +10°C° 0 mm 4 m/s 768 mmHg 88%
    03:00 +8°C° 0 mm 4 m/s 768 mmHg 88%
    04:00 +9°C° 0 mm 3 m/s 768 mmHg 87%
    05:00 +9°C° 0 mm 3 m/s 768 mmHg 87%
    06:00 +9°C° 0 mm 3 m/s 769 mmHg 86%
    07:00 +9°C° 0 mm 3 m/s 769 mmHg 85%
    08:00 +10°C° 0 mm 3 m/s 769 mmHg 76%
    09:00 +12°C° 0 mm 4 m/s 769 mmHg 68%
    10:00 +14°C° 0 mm 4 m/s 769 mmHg 60%
    11:00 +14°C° 0 mm 5 m/s 769 mmHg 58%
    12:00 +15°C° 0 mm 5 m/s 769 mmHg 56%
    13:00 +16°C° 0 mm 6 m/s 768 mmHg 54%
    14:00 +16°C° 0 mm 6 m/s 768 mmHg 56%
    15:00 +16°C° 0 mm 6 m/s 767 mmHg 58%
    16:00 +15°C° 0 mm 6 m/s 767 mmHg 60%
    17:00 +14°C° 0 mm 6 m/s 767 mmHg 65%
    18:00 +12°C° 0 mm 5 m/s 767 mmHg 69%
    19:00 +10°C° 0 mm 5 m/s 768 mmHg 74%
    20:00 +9°C° 0 mm 5 m/s 768 mmHg 74%
    21:00 +10°C° 0 mm 4 m/s 768 mmHg 75%
    22:00 +10°C° 0 mm 4 m/s 768 mmHg 76%
    23:00 +10°C° 0 mm 4 m/s 768 mmHg 77%
    Arată mai mult